Preview of NWS' New Version of Forecast
This preview is not operational and should not be used for support decisions.

Regional Weather Roundup (RWR)

Issued by National Weather Service (NWS)

                            
000
ASUS45 KBOU 201510
RWRCO 

WEATHER ROUNDUP FOR COLORADO
NATIONAL WEATHER SERVICE DENVER/BOULDER CO
900 AM MDT THU JUN 20 2019

NOTE: "FAIR" INDICATES FEW OR NO CLOUDS BELOW 12000 FEET WITH NO
SIGNIFICANT WEATHER AND/OR OBSTRUCTIONS TO VISIBILITY.

COZ001>005-013-030-031-201600-
...NORTHWEST COLORADO...
  
CITY           SKY/WX    TMP DP  RH WIND       PRES   REMARKS
CRAIG          FAIR      63  45  51 NE5       29.96F                  
HAYDEN         FAIR      62  43  49 E8        29.99F                  
MEEKER         FAIR      62  42  47 CALM      29.96F                  
RANGELY        FAIR      66  43  42 CALM      29.89F                  
RABBIT EARS PA NOT AVBL                                               
STEAMBOAT SPGS FAIR      55  47  72 NW3       30.00F                  
WALDEN         NOT AVBL                                               
$$

COZ006>008-011-201600-
...WEST CENTRAL VALLEYS...
  
CITY           SKY/WX    TMP DP  RH WIND       PRES   REMARKS
GRAND JUNCTION FAIR      72  41  32 S5        29.88R                  
MONTROSE       FAIR      73  45  36 NW5       29.97S                  
EAGLE          FAIR      58  41  53 CALM      30.00F                  
RIFLE          FAIR      64  44  48 CALM      29.93F                  
DELTA          FAIR      72  40  31 E9        29.93F                  
NUCLA          FAIR      72  36  26 E5        30.02S                  
$$

COZ017>023-064>068-201600-
...SOUTHWEST COLORADO...
  
CITY           SKY/WX    TMP DP  RH WIND       PRES   REMARKS
DURANGO        FAIR      63  40  42 CALM      30.10R                  
CORTEZ         FAIR      68  44  42 CALM      30.03S                  
PAGOSA SPRINGS FAIR      61  33  34 S6        30.17R                  
TELLURIDE      PTSUNNY   59  37  44 CALM      30.23S                  
WOLF CREEK PAS NOT AVBL                                               
$$

COZ009-010-012-014-032>034-037-058>063-201600-
...CENTRAL COLORADO...
  
CITY           SKY/WX    TMP DP  RH WIND       PRES   REMARKS
ASPEN          FAIR      61  38  42 CALM      30.04F                  
BUENA VISTA    FAIR      67  30  25 W7        30.07F                  
COPPER MTN     NOT AVBL                                               
BERTHOUD PASS  FAIR      41  32  70 W32G41    30.31F                  
COTTONWOOD PAS NOT AVBL                                               
GUNNISON       FAIR      55  41  59 E3        30.11F                  
GRANBY         NOT AVBL                                               
KREMMLING      FAIR      55  43  62 CALM      30.06S                  
LEADVILLE      FAIR      58  28  32 N8        30.18S                  
MONARCH PASS   FAIR      45  30  57 MISG      30.44R                  
SALIDA         FAIR      73  32  22 SW15G21   30.12F                  
SUNLIGHT       FAIR      46  32  57 SW14G23   30.26S                  
WILKERSON PASS FAIR      50  28  43 SW10G21   30.30S                  
$$

COZ069>075-201600-
...SAN LUIS VALLEY/SANGRE DE CRISTO MOUNTAINS...
  
CITY           SKY/WX    TMP DP  RH WIND       PRES   REMARKS
ALAMOSA        FAIR      64  37  36 S7        30.09F                  
DEL NORTE      FAIR      63  39  41 CALM      30.13S                  
LA VETA PASS   NOT AVBL                                               
SAGUACHE       FAIR      59  37  44 CALM      30.13S                  
$$

COZ035-036-038>040-201600-
...NORTHERN COLORADO FRONT RANGE...
  
CITY           SKY/WX    TMP DP  RH WIND       PRES   REMARKS
DENVER INTL AP FAIR      63  48  58 SE9       29.93F                  
AURORA         MOSUNNY   64  47  53 SE7       29.95F                  
FRONT RANGE AP NOT AVBL                                               
ERIE MUNI ARPT FAIR      65  46  51 SE6       29.97F                  
BOULDER MUN AP FAIR      64  46  52 SE5       29.93S                  
CENTENNIAL     FAIR      64  45  49 SE8       29.96F                  
BROOMFIELD     MOSUNNY   63  46  55 SE8       29.95F                  
FORT COLLINS   FAIR      63  48  58 S10       29.92F                  
LONGMONT       FAIR      67  48  51 S3        29.93F                  
$$

COZ041-046-047-076>085-087-088-201600-
...PIKES PEAK/PALMER DIVIDE AND SOUTHERN FOOTHILLS...
  
CITY           SKY/WX    TMP DP  RH WIND       PRES   REMARKS
COLO. SPRINGS  PTSUNNY   69  44  40 NE10      29.98R                  
A. F. ACADEMY  FAIR      67  41  39 N6        29.97S                  
SCHRIEVER AFB  NOT AVBL                                               
CHEYENNE MTN   NOT AVBL                                               
ELLICOTT         N/A    N/A N/A N/A E14       29.95R                  
FALCON         FAIR      65  42  41 NE12G20   30.03R                  
FORT CARSON    FAIR      70  44  38 N6        29.94R                  
LIMON          FAIR      66  49  54 N14       29.93S                  
MONUMENT HILL  FAIR      59  41  51 E6        30.03F                  
CANON CITY     FAIR      73  43  33 SE7G20    29.91R                  
WALSENBURG     NOT AVBL                                               
TRINIDAD       FAIR      79  41  25 W12G17    29.95F                  
$$

COZ042>045-048>051-090-091-201600-
...NORTHEAST COLORADO...
  
CITY           SKY/WX    TMP DP  RH WIND       PRES   REMARKS
GREELEY ARPT   FAIR      65  49  56 S7        29.92F                  
AKRON          FAIR      63  52  67 NE6       29.90R                  
BURLINGTON     FAIR      71  53  52 N13       29.85F                  
WRAY           FAIR      70  54  56 N7        29.85S                  
YUMA           FAIR      63  43  48 N7        29.87S                  
STERLING       FAIR      64  52  63 CALM      29.86R                  
HOLYOKE        FAIR      70  54  56 N10       29.85S                  
FORT MORGAN    FAIR      63  47  57 CALM      29.91S                  
$$

COZ086-089-092>099-201600-
...SOUTHEAST COLORADO...
  
CITY           SKY/WX    TMP DP  RH WIND       PRES   REMARKS
PUEBLO         FAIR      70  51  51 S3        29.88S                  
LA JUNTA       FAIR      77  48  35 N7        29.85S                  
LAMAR          FAIR      74  54  49 NW6       29.81R                  
SPRINGFIELD      N/A     79  55  43 N13G18    29.85R                  
$$